Regional Weather Roundup
Issued by NWS

Home | Current Version | Previous Version | Text Only | Print | Product List | Glossary Off
Versions: 1 2 3 4 5 6 7 8 9 10 11 12 13 14 15 16 17 18 19 20 21 22 23 24 25 26 27 28 29 30 31 32 33 34 35 36 37 38 39 40 41 42 43 44 45 46 47 48 49 50

000
ASUS43 KMKX 250411
RWRWI

WISCONSIN REGIONAL WEATHER ROUNDUP
NATIONAL WEATHER SERVICE MILWAUKEE/SULLIVAN WI
1100 PM CDT SUN JUL 24 2016

NOTE: "FAIR" INDICATES FEW OR NO CLOUDS BELOW 12,000 FEET WITH NO
SIGNIFICANT WEATHER AND/OR OBSTRUCTIONS TO VISIBILITY.

WIZ001-002-006>008-014>016-023>028-250500-
NORTHWEST WISCONSIN

CITY           SKY/WX    TMP DP  RH WIND       PRES   REMARKS
SUPERIOR ARPT  CLEAR     68  63  82 W6        29.88R
ASHLAND        CLEAR     68  61  78 SW8       29.88R
HAYWARD        CLEAR     69  61  75 SW3       29.92R
SIREN          CLEAR     70  63  78 W7        29.94R
CUMBERLAND     CLEAR     66  61  82 W8        29.95R
RICE LAKE      CLEAR     67  61  79 W3        29.96R
CHETEK         CLEAR     68  62  81 CALM      29.95R
LADYSMITH      CLEAR     69  63  80 W3        29.95R
EAU CLAIRE     CLEAR     70  64  81 SW7       29.94R
MENOMONIE      CLEAR     72  63  73 SW5       29.95R
NEW RICHMOND   CLEAR     67  61  80 W3        29.96S
OSCEOLA        CLEAR     70  62  76 W7        29.98R
$$

WIZ003>005-009-010-017-018-250500-
NORTH CENTRAL WISCONSIN

CITY           SKY/WX    TMP DP  RH WIND       PRES   REMARKS
MANITOWISH WTR CLEAR     62  62 100 CALM      29.91R
ARBOR VITAE    CLEAR     69  63  80 W3        29.91S
WOODRUFF       CLEAR     69  63  80 W3        29.91S
RHINELANDER    CLEAR     66  61  84 W6        29.92R
EAGLE RIVER    CLEAR     63  61  95 W5        29.90R
LAND O LAKES   CLEAR     68  60  76 W5        29.91R
PHILLIPS       CLEAR     67  62  84 CALM      29.92R
TOMAHAWK       CLEAR     65  60  85 W5        29.93R
MEDFORD        CLEAR     66  64  92 W3        29.94R
MERRILL        CLEAR     69  63  81 W6        29.93R
$$

WIZ029-030-035-036-043>047-250500-
CENTRAL WISCONSIN

CITY           SKY/WX    TMP DP  RH WIND       PRES   REMARKS
WAUSAU         CLEAR     71  61  70 W9        29.90R
MOSINEE        CLEAR     66  63  88 W5        29.93R
MARSHFIELD     CLEAR     69  62  78 W6        29.93R
STEVENS POINT  CLEAR     70  63  76 CALM      29.93R
WAUPACA        CLOUDY    75  66  71 W5        29.91R
WAUTOMA        CLEAR     70  66  87 W7        29.92R
WISC RAPIDS    CLEAR     70  62  76 W5        29.94R
CAMP DOUGLAS   CLEAR     66  63  91 W5        29.93R
$$

WIZ011>013-019>022-031-037>040-048>050-250500-
NORTHEAST WISCONSIN

CITY           SKY/WX    TMP DP  RH WIND       PRES   REMARKS
ANTIGO         CLEAR     67  63  85 CALM      29.92R
SHAWANO        PTCLDY    74  65  73 W5        29.88R
OCONTO         PTCLDY    71  71 100 W5        29.84R
STURGEON BAY   CLOUDY    76  67  73 W6        29.84S
GREEN BAY      CLOUDY    72  69  90 W8        29.85R
MANITOWOC      CLOUDY    76  66  71 W6        29.85S
APPLETON       PTCLDY    73  63  68 W6        29.87R
CLINTONVILLE   PTCLDY    72  63  73 W6        29.89R
OSHKOSH        CLOUDY    76  65  68 W9        29.88R
$$

WIZ032>034-041-042-053>061-250500-
SOUTHWEST WISCONSIN

CITY           SKY/WX    TMP DP  RH WIND       PRES   REMARKS
LA CROSSE      CLEAR     75  65  70 NW9       29.94R
SPARTA         CLEAR     69  65  89 W3        29.95R
VIROQUA        CLEAR     68  66  91 W5        29.97R
BOSCOBEL       CLEAR     70  68  93 CALM      29.95R
PRAIRIE DU CHI CLEAR     71  64  78 CALM      29.96R
PLATTEVILLE    PTCLDY    70  70  98 W5        29.96S
$$

WIZ056-057-062-063-064-067-068-250500-
SOUTH CENTRAL WISCONSIN

CITY           SKY/WX    TMP DP  RH WIND       PRES   REMARKS
REEDSBURG      CLOUDY    71  67  87 W3        29.93R
BARABOO/DELLS  CLOUDY    70  64  80 CALM      29.93R
LONE ROCK      CLEAR     72  68  87 W7        29.94R
MINERAL POINT  CLOUDY    72  68  88 W6        29.96R
MADISON        CLOUDY    76  66  71 NW6       29.91R
MIDDLETON      CLOUDY    74  68  81 CALM      29.93R
WATERTOWN      CLOUDY    75  68  78 W6        29.90R
MONROE         CLOUDY    73  66  78 W7        29.94R
JANESVILLE     MOCLDY    75  68  78 W3        29.91R
$$

WIZ051-052-058>065-066-070>072-250500-
SOUTHEAST WISCONSIN

CITY           SKY/WX    TMP DP  RH WIND       PRES   REMARKS
MILWAUKEE      CLOUDY    83  69  62 W6        29.87R HX  86
WAUKESHA       CLOUDY    75  64  69 W6        29.90R
MILWAUKEE/TIMM MOCLDY    79  64  61 W8        29.88R HX  81
RACINE         CLOUDY    81  71  71 W5        29.89S HX  85
BURLINGTON     CLOUDY    75  71  87 CALM      29.89S
KENOSHA        MOCLDY    81  70  69 NW7       29.88F HX  84
FOND DU LAC    CLOUDY    76  67  73 W7        29.88R
SHEBOYGAN      CLOUDY    74  68  81 SW6       29.87R
WEST BEND      CLOUDY    77  64  65 NW5       29.89R
JUNEAU         CLOUDY    75  66  73 W3        29.91R
$$

LSZ147-162-250500-
LAKE SUPERIOR

STATION/POSITION TIME  TEMP    WIND        PRES    WAVE
                       AIR SEA DIR/SP/G            HT/PER
                 (UTC) (F)     (DEG/KT/KT) (MB)    (FT/S)
W MID LAKE BUOY  0350   64 59  260/ 12/ 12 1008.7R   1/ 4
DEVILS ISLAND    0400   67     250/ 15/ 17 1010.1R
PORT WING        0217   74     240/ 10/ 16 1010.8
SAXON HARBOR     0300   74     200/  6/  7 1010.5R
$$

LMZ867-665-643>646-250500-
LAKE MICHIGAN

STATION/POSITION TIME  TEMP    WIND        PRES    WAVE
                       AIR SEA DIR/SP/G            HT/PER
                 (UTC) (F)     (DEG/KT/KT) (MB)    (FT/S)
CHAMBERS ISLAND  0300   77     230/  4/  6 1009.5R
S GREEN BAY BUOY 0300   76 74  230/  6/  8   N/A
N MID LAKE BUOY  0350   71 68  280/  8/  8 1008.4R   3/ 6
NORTHPORT PIER   0300   79     280/  5/  9 1009.1R
KEWAUNEE LAKESHO 0300                      1009.9
SHEBOYGAN LAKESH 0400   79     280/  5/  6 1011.1R
PORT WASHINGTON  0200   84     300/  6/ 11 1011.5R
MILWAUKEE LAKESH 0310   84     320/  6/ 10   N/A
S MID LAKE BUOY  0350   76 73  250/ 10/ 12 1010.2F   2/ 4
KENOSHA   LAKESH 0400   83     300/  3/  5 1011.2R
$$

TC  - TEMPERATURE IN CELSIUS
VSB - VISIBILITY IN STATUTE MILES
WCI - WIND CHILL INDEX
HX  - HEAT INDEX




USA.gov is the U.S. government's official web portal to all federal, state and local government web resources and services.